Torna al catalogo

THOR ABLESTAR DEB

AttivoLEO
NORAD 561·DEBRIS·🇺🇸 United States

Lanciato Jun 29, 1961 da Cape Canaveral Space Force Station

Loading…

Prossimi Passaggi (prossime 24 ore)

TLE

AggiornatoSource: Space-Track

Epoca: Sep 14, 2026, 10:23 UTC

1 00561U 61015GT  26257.43299981  .00000598  00000-0  23619-2 0  9997
2 00561  67.7558 172.3063 0630188 237.1747 234.0292 12.41558789952201

Traccia THOR ABLESTAR DEB in tempo reale con AllMySat

Download on the App Store